This demonstration page uses our WeatherBlox Daily Observations layout. Learn more.

Left ArrowRight Arrow

39.12711, -84.51439

Hourly Observations for September 22, 2021

Temp ( °F °C ) Dew Point ( °F °C ) Humidity (%) Winds ( mph kmh ) Pressure ( in mb ) Visibility ( mi km ) Precip ( " mm )
12:31 am 00:31 Cloudy with Heavy Rain 71 21.7 69 20.6 94 94 SSW 5 7 29.96 1014 10 16 N/A
12:53 am 00:53 Cloudy with Light Rain 71 21.7 69 20.6 94 94 VRB 5 7 29.94 1014 10 16 N/A
1:02 am 01:02 Cloudy 71 21.7 69 20.6 94 94 SSE 5 7 29.94 1014 10 16 0.01 0.25
1:37 am 01:37 Cloudy 71 21.7 69 20.6 94 94 N N/A 29.91 1013 10 16 0.02 0.51
1:53 am 01:53 Cloudy 70 21.1 69 20.6 97 97 SSW 3 6 29.91 1013 10 16 0.03 0.76
2:21 am 02:21 Cloudy with Light Rain 70 21.1 69 20.6 97 97 S 3 6 29.89 1012 10 16 0.00 0.00
2:53 am 02:53 Cloudy 70 21.1 69 20.6 97 97 S 5 7 29.87 1012 10 16 0.01 0.25
3:34 am 03:34 Cloudy with Light Rain 66 18.9 64 17.8 93 93 NNW 20 31 29.87 1012 10 16 0.02 0.51
3:48 am 03:48 Cloudy with Light Rain 64 18 61 16 88 88 NNW 22 35 29.87 1012 10 16 0.02 0.51
3:53 am 03:53 Cloudy with Light Rain 64 17.8 61 16.1 90 90 NNW 21 33 29.87 1012 10 16 0.02 0.51
4:53 am 04:53 Cloudy 63 17.2 60 15.6 90 90 N 7 11 29.86 1011 10 16 0.03 0.76
5:03 am 05:03 Cloudy 63 17.2 60 15.6 90 90 N 14 22 29.86 1011 10 16 N/A
5:53 am 05:53 Cloudy 61 16.1 58 14.4 90 90 N 17 28 29.87 1011 10 16 0.02 0.51
6:53 am 06:53 Cloudy with Light Rain 59 15 56 13.3 90 90 WNW 10 17 29.91 1013 10 16 0.01 0.25
7:04 am 07:04 Cloudy with Light Rain 58 14.4 56 13.3 93 93 WNW 8 13 29.92 1013 10 16 0.00 0.00
7:53 am 07:53 Cloudy 59 15 56 13.3 90 90 N 18 30 29.89 1012 10 16 0.02 0.51
8:53 am 08:53 Cloudy with Light Rain 59 15 56 13.3 90 90 N 17 28 29.88 1012 10 16 0.02 0.51
9:33 am 09:33 Cloudy with Light Rain 60 15.6 56 13.3 86 86 WNW 10 17 29.93 1013 10 16 0.01 0.25
9:53 am 09:53 Cloudy with Light Rain 59 15 56 13.3 90 90 NNW 10 17 29.92 1013 7 11 0.01 0.25
10:53 am 10:53 Cloudy with Light Rain 59 15 57 13.9 93 93 NNW 12 19 29.89 1012 7 11 0.14 3.56
11:15 am 11:15 Cloudy with Light Rain 59 15 57 13.9 93 93 VRB 7 11 29.94 1014 7 11 0.00 0.00
11:53 am 11:53 Cloudy with Light Rain 59 15 57 13.9 93 93 N N/A 29.91 1013 7 11 0.03 0.76
12:53 pm 12:53 Cloudy with Rain 59 15 57 13.9 93 93 NNE 6 9 29.89 1012 7 11 0.05 1.27
1:00 pm 13:00 Cloudy with Rain 59 15 57 13.9 93 93 NNE 5 7 29.91 1013 6 10 0.01 0.25
1:08 pm 13:08 Cloudy with Rain 59 15 57 13.9 93 93 ENE 5 7 29.91 1013 6 10 0.02 0.51
1:53 pm 13:53 Cloudy with Light Rain 59 15 58 14.4 96 96 NE 13 20 29.82 1010 10 16 0.07 1.78
2:53 pm 14:53 Cloudy with Light Rain 59 15 57 13.9 93 93 WNW 9 15 29.86 1011 10 16 0.00 0.00
3:01 pm 15:01 Cloudy with Light Rain 60 15.6 57 13.9 90 90 W 10 17 29.88 1012 10 16 0.00 0.00
3:08 pm 15:08 Cloudy with Light Rain 59 15 57 13.9 93 93 WNW 7 11 29.87 1011 10 16 0.00 0.00
3:38 pm 15:38 Cloudy with Light Rain 58 14.4 57 13.9 97 97 WNW 8 13 29.88 1012 2 3 0.02 0.51
3:53 pm 15:53 Cloudy with Light Rain 58 14.4 57 13.9 97 97 WNW 8 13 29.88 1012 4 6 0.03 0.76
4:18 pm 16:18 Cloudy with Heavy Rain 58 14.4 58 14.4 100 100 W 10 17 29.89 1012 1 2 0.10 2.54
4:35 pm 16:35 Cloudy with Rain 58 14.4 57 13.9 97 97 NW 8 13 29.89 1012 1 2 0.17 4.32
4:53 pm 16:53 Cloudy with Rain 58 14.4 56 13.3 93 93 WNW 8 13 29.89 1012 2 3 0.20 5.08
5:50 pm 17:50 Cloudy with Rain 57 14 55 13 94 94 NNW 8 13 29.89 1012 4 6 0.12 3.05
5:53 pm 17:53 Cloudy with Rain 57 13.9 56 13.3 96 96 NW 8 13 29.89 1012 4 6 0.13 3.30
6:53 pm 18:53 Cloudy with Light Rain 57 13.9 55 12.8 93 93 WNW 7 11 29.89 1012 6 10 0.10 2.54
7:53 pm 19:53 Cloudy with Light Rain 56 13.3 54 12.2 93 93 NNW 10 17 29.89 1012 6 10 0.05 1.27
8:23 pm 20:23 Cloudy with Light Rain 56 13.3 53 11.7 90 90 NNW 8 13 29.90 1013 6 10 0.01 0.25
8:53 pm 20:53 Cloudy with Mist and Fog 56 13.3 53 11.7 90 90 NNW 8 13 29.91 1013 6 10 0.01 0.25
9:53 pm 21:53 Cloudy with Light Rain 55 12.8 53 11.7 93 93 NW 13 20 29.93 1014 6 10 0.01 0.25
10:21 pm 22:21 Cloudy with Light Rain 54 12.2 53 11.7 97 97 W 6 9 29.94 1014 3 5 0.03 0.76
10:36 pm 22:36 Cloudy with Rain 54 12.2 54 12.2 100 100 W 6 9 29.94 1014 3 4 0.05 1.27
10:41 pm 22:41 Cloudy with Rain 54 12.2 54 12.2 100 100 W 7 11 29.94 1014 3 4 0.06 1.52
10:45 pm 22:45 Cloudy with Rain 54 12.2 54 12.2 100 100 N N/A 29.94 1014 3 5 0.06 1.52
10:48 pm 22:48 Cloudy with Light Rain 54 12 54 12 100 100 W 5 7 29.94 1014 3 4 0.06 1.52
10:50 pm 22:50 Cloudy with Light Rain 54 12 54 12 100 100 VRB 7 11 29.94 1014 3 5 0.07 1.78
10:53 pm 22:53 Cloudy with Light Rain 55 12.8 53 11.7 93 93 WNW 9 15 29.93 1014 3 5 0.07 1.78
11:37 pm 23:37 Cloudy with Light Rain 54 12.2 52 11.1 93 93 WNW 9 15 29.94 1014 8 13 0.02 0.51
11:53 pm 23:53 Cloudy with Light Rain 54 12.2 52 11.1 93 93 W 7 11 29.93 1014 10 16 0.03 0.76

Powered by AerisWeather